Date String (YYYY-MM-DD hh:mm:ss) UTC,Instrument flags,absolute air pressure of the measurement (hPa),sample flow rate (lpm),inlet stack bypass flow (lpm),air temperature of the measurement (°C),ambient temperature measured by the external sensor (°C),aerosol sample conditioner tube jacket temperature (°C),OPC LED temperature (°C),internal box temperature (°C),relative humidity of the measurement (%),span deviation,mass concentration of particles derived from Lorenz-Mie calculation of OPC scattering (μg/m³),mass concentration of particles derived from Lorenz-Mie calculation of OPC scattering (μg/m³),mass concentration of particles derived from Lorenz-Mie calculation of OPC scattering (μg/m³)
DateTimeUTC,F1_M11,P_M11,Q1_M11,Q2_M11,T1_M11,T2_M11,T3_M11,T4_M11,T5_M11,U1_M11,ZSPAN_M11,X0_M11,X2_M11,X1_M11
2024-02-29 08:00:00,SystemResetWarning,0826.8,5.00,000.00,020.5,019.7,000.0,028.8,022.2,08.5,0000.0,0009.80,0003.95,0002.29
2024-02-29 08:01:00,SystemResetWarning,0827.0,4.99,000.00,020.5,019.7,000.0,028.8,022.2,08.6,0000.0,0009.83,0003.92,0002.28
2024-02-29 08:02:00,SystemResetWarning,0827.1,5.00,000.00,020.5,019.7,000.0,028.8,022.2,08.7,0000.0,0009.84,0003.85,0002.27
2024-02-29 08:03:00,SystemResetWarning,0827.1,5.01,000.00,020.5,019.7,000.0,028.8,022.2,08.7,0000.0,0009.70,0003.82,0002.24
2024-02-29 08:04:00,SystemResetWarning,0827.1,5.01,000.00,020.5,019.7,000.0,028.8,022.2,08.6,0000.0,0009.53,0003.78,0002.21
2024-02-29 08:05:00,SystemResetWarning,0827.1,5.01,000.00,020.5,019.7,000.0,028.8,022.1,08.6,0000.0,0011.07,0003.86,0002.21
2024-02-29 08:06:00,SystemResetWarning,0827.0,5.00,000.00,020.5,019.7,000.0,028.8,022.2,08.6,0000.0,0011.67,0003.89,0002.21
2024-02-29 08:07:00,SystemResetWarning,0827.0,5.00,000.00,020.5,019.7,000.0,028.8,022.2,08.7,0000.0,0011.88,0003.92,0002.21
2024-02-29 08:08:00,SystemResetWarning,0827.0,5.00,000.00,020.5,019.7,000.0,028.8,022.2,08.7,0000.0,0012.33,0003.96,0002.22
2024-02-29 08:09:00,SystemResetWarning,0827.0,4.99,000.00,020.5,019.7,000.0,028.8,022.1,08.7,0000.0,0013.05,0003.97,0002.25
2024-02-29 08:10:00,SystemResetWarning,0827.0,4.99,000.00,020.5,019.7,000.0,028.8,022.2,08.8,0000.0,0013.10,0003.98,0002.26
2024-02-29 08:11:00,SystemResetWarning,0827.0,5.00,000.00,020.5,019.7,000.0,028.8,022.2,08.8,0000.0,0012.89,0003.98,0002.29
2024-02-29 08:12:00,SystemResetWarning,0826.9,5.01,000.00,020.5,019.7,000.0,028.8,022.2,08.8,0000.0,0013.34,0003.99,0002.32
2024-02-29 08:13:00,SystemResetWarning,0826.9,5.00,000.00,020.5,019.7,000.0,028.8,022.2,08.8,0000.0,0013.39,0004.02,0002.37
2024-02-29 08:14:00,SystemResetWarning,0827.0,5.00,000.00,020.5,019.7,000.0,028.8,022.2,09.0,0000.0,0013.47,0004.09,0002.42
2024-02-29 08:15:00,SystemResetWarning,0826.9,5.00,000.00,020.4,019.7,000.0,028.8,022.2,09.0,0000.0,0013.74,0004.12,0002.45
2024-02-29 08:16:00,SystemResetWarning,0826.9,5.00,000.00,020.5,019.7,000.0,028.8,022.2,09.0,0000.0,0012.77,0004.14,0002.49
2024-02-29 08:17:00,SystemResetWarning,0826.8,5.00,000.00,020.4,019.7,000.0,028.8,022.2,09.0,0000.0,0012.83,0004.24,0002.53
2024-02-29 08:18:00,SystemResetWarning,0826.8,5.00,000.00,020.4,019.7,000.0,028.8,022.2,09.0,0000.0,0012.99,0004.23,0002.54
2024-02-29 08:19:00,SystemResetWarning,0826.8,4.99,000.00,020.4,019.7,000.0,028.8,022.2,09.0,0000.0,0012.53,0004.21,0002.57
2024-02-29 08:20:00,SystemResetWarning,0826.9,5.00,000.00,020.4,019.7,000.0,028.8,022.1,09.0,0000.0,0011.69,0004.19,0002.57
2024-02-29 08:21:00,SystemResetWarning,0826.9,5.00,000.00,020.4,019.6,000.0,028.8,022.2,09.0,0000.0,0011.67,0004.24,0002.60
2024-02-29 08:22:00,SystemResetWarning,0826.9,5.00,000.00,020.4,019.6,000.0,028.8,022.2,09.0,0000.0,0012.75,0004.28,0002.63
2024-02-29 08:23:00,SystemResetWarning,0826.9,5.01,000.00,020.4,019.7,000.0,028.8,022.2,09.1,0000.0,0013.10,0004.34,0002.65
2024-02-29 08:24:00,SystemResetWarning,0826.8,5.01,000.00,020.4,019.7,000.0,028.8,022.1,09.1,0000.0,0013.38,0004.39,0002.68
2024-02-29 08:25:00,SystemResetWarning,0826.8,5.00,000.00,020.4,019.7,000.0,028.8,022.1,09.1,0000.0,0013.86,0004.36,0002.72
2024-02-29 08:26:00,SystemResetWarning,0826.8,5.00,000.00,020.4,019.6,000.0,028.8,022.1,09.0,0000.0,0013.64,0004.36,0002.78
2024-02-29 08:27:00,SystemResetWarning,0826.9,4.99,000.00,020.4,019.6,000.0,028.7,022.1,09.0,0000.0,0014.66,0004.34,0002.82
2024-02-29 08:28:00,SystemResetWarning,0826.9,5.00,000.00,020.4,019.6,000.0,028.7,022.1,09.1,0000.0,0014.93,0004.27,0002.86
2024-02-29 08:29:00,SystemResetWarning,0826.9,4.99,000.00,020.4,019.6,000.0,028.7,022.1,09.1,0000.0,0015.65,0004.31,0002.93
2024-02-29 08:30:00,SystemResetWarning,0826.8,5.00,000.00,020.4,019.6,000.0,028.7,022.1,09.1,0000.0,0016.65,0004.41,0003.00
2024-02-29 08:31:00,SystemResetWarning,0826.8,5.02,000.00,020.4,019.5,000.0,028.7,022.1,09.1,0000.0,0017.88,0004.45,0003.05
2024-02-29 08:32:00,SystemResetWarning,0826.8,5.00,000.00,020.3,019.5,000.0,028.7,022.1,09.1,0000.0,0019.45,0004.50,0003.09
2024-02-29 08:33:00,SystemResetWarning,0826.8,5.00,000.00,020.3,019.5,000.0,028.7,022.0,09.1,0000.0,0019.16,0004.55,0003.12
2024-02-29 08:34:00,SystemResetWarning,0826.8,4.99,000.00,020.3,019.5,000.0,028.7,022.0,09.0,0000.0,0019.24,0004.53,0003.13
2024-02-29 08:35:00,SystemResetWarning,0826.8,4.99,000.00,020.3,019.5,000.0,028.7,022.0,09.0,0000.0,0018.96,0004.57,0003.14
2024-02-29 08:36:00,SystemResetWarning,0826.7,5.01,000.00,020.3,019.5,000.0,028.7,022.0,09.0,0000.0,0018.61,0004.61,0003.15
2024-02-29 08:37:00,SystemResetWarning,0826.8,5.01,000.00,020.3,019.5,000.0,028.7,022.0,09.0,0000.0,0019.03,0004.71,0003.16
2024-02-29 08:38:00,SystemResetWarning,0826.8,4.98,000.00,020.3,019.5,000.0,028.7,022.0,09.0,0000.0,0018.23,0004.80,0003.17
2024-02-29 08:39:00,SystemResetWarning,0826.6,4.99,000.00,020.3,019.5,000.0,028.6,022.0,08.9,0000.0,0017.71,0004.83,0003.19
2024-02-29 08:40:00,SystemResetWarning,0826.6,5.02,000.00,020.3,019.5,000.0,028.6,022.0,08.9,0000.0,0017.70,0004.83,0003.20
2024-02-29 08:41:00,SystemResetWarning,0826.6,5.01,000.00,020.3,019.5,000.0,028.6,022.0,09.0,0000.0,0017.81,0004.82,0003.20
2024-02-29 08:42:00,SystemResetWarning,0826.6,4.99,000.00,020.3,019.5,000.0,028.6,022.0,08.9,0000.0,0017.28,0004.88,0003.19
2024-02-29 08:43:00,SystemResetWarning,0826.6,4.99,000.00,020.3,019.5,000.0,028.6,022.0,08.9,0000.0,0016.06,0004.92,0003.19
2024-02-29 08:44:00,SystemResetWarning,0826.6,4.99,000.00,020.3,019.5,000.0,028.6,022.0,09.0,0000.0,0016.38,0004.88,0003.19
2024-02-29 08:45:00,SystemResetWarning,0826.6,4.99,000.00,020.3,019.5,000.0,028.6,022.0,09.0,0000.0,0015.23,0004.88,0003.19
2024-02-29 08:46:00,SystemResetWarning,0826.6,5.00,000.00,020.3,019.5,000.0,028.6,022.0,09.0,0000.0,0015.16,0004.84,0003.17
2024-02-29 08:47:00,SystemResetWarning,0826.7,5.00,000.00,020.3,019.5,000.0,028.6,022.0,09.0,0000.0,0016.22,0004.86,0003.18
2024-02-29 08:48:00,SystemResetWarning,0826.6,5.00,000.00,020.3,019.5,000.0,028.6,022.0,09.0,0000.0,0017.02,0004.83,0003.16
2024-02-29 08:49:00,SystemResetWarning,0826.7,5.00,000.00,020.3,019.5,000.0,028.6,022.0,09.1,0000.0,0017.17,0004.77,0003.15
2024-02-29 08:50:00,SystemResetWarning,0826.8,5.00,000.00,020.3,019.5,000.0,028.6,022.0,09.1,0000.0,0017.23,0004.78,0003.15
2024-02-29 08:51:00,SystemResetWarning,0826.7,5.00,000.00,020.3,019.5,000.0,028.6,021.9,09.1,0000.0,0016.17,0004.76,0003.13
2024-02-29 08:52:00,SystemResetWarning,0826.6,5.00,000.00,020.2,019.5,000.0,028.6,021.9,09.1,0000.0,0015.41,0004.73,0003.12
2024-02-29 08:53:00,SystemResetWarning,0826.6,5.00,000.00,020.2,019.5,000.0,028.6,022.0,09.1,0000.0,0015.39,0004.72,0003.12
2024-02-29 08:54:00,SystemResetWarning,0826.6,5.00,000.00,020.2,019.5,000.0,028.6,022.0,09.1,0000.0,0015.89,0004.67,0003.10
2024-02-29 08:55:00,SystemResetWarning,0826.5,5.00,000.00,020.2,019.5,000.0,028.6,022.0,09.1,0000.0,0016.01,0004.71,0003.10
2024-02-29 08:56:00,SystemResetWarning,0826.4,5.00,000.00,020.2,019.5,000.0,028.6,022.0,09.1,0000.0,0016.89,0004.68,0003.08
2024-02-29 08:57:00,SystemResetWarning,0826.5,5.00,000.00,020.2,019.5,000.0,028.6,021.9,09.1,0000.0,0017.41,0004.69,0003.07
2024-02-29 08:58:00,SystemResetWarning,0826.6,5.00,000.00,020.2,019.5,000.0,028.6,021.9,09.1,0000.0,0016.90,0004.70,0003.05
2024-02-29 08:59:00,SystemResetWarning,0826.6,4.99,000.00,020.2,019.5,000.0,028.6,021.9,09.1,0000.0,0016.17,0004.70,0003.06
